| time (UTC) | temp F | wind direction | speed MPH | gust MPH | rain 1hr in | rain 24hr in | rain mn in | humidity % | barometer mb |
| 20260904131614 | 60 | 315 | 4.0 | 5.0 | 0.00 | 1.01 | 0.01 | 97 | 1010.5 |
| 20260904130617 | 60 | 316 | 4.0 | 5.0 | 0.00 | 1.03 | 0.01 | 97 | 1010.4 |
| 20260904125713 | 60 | 312 | 4.0 | 7.0 | 0.00 | 1.04 | 0.01 | 97 | 1010.5 |
| 20260904125614 | 60 | 333 | 3.0 | 6.0 | 0.00 | 1.04 | 0.01 | 96 | 1010.5 |
| 20260904124714 | 60 | 348 | 5.0 | 7.0 | 0.00 | 1.06 | 0.01 | 97 | 1010.6 |
| 20260904123715 | 60 | 360 | 5.0 | 7.0 | 0.00 | 1.08 | 0.01 | 97 | 1010.5 |
| 20260904122716 | 60 | 326 | 3.0 | 6.0 | 0.00 | 1.11 | 0.01 | 96 | 1010.5 |
| 20260904121715 | 60 | 332 | 5.0 | 8.0 | 0.00 | 1.17 | 0.01 | 97 | 1010.6 |
| 20260904121615 | 60 | 348 | 5.0 | 7.0 | 0.00 | 1.17 | 0.01 | 97 | 1010.6 |
| 20260904120615 | 60 | 339 | 3.0 | 4.0 | 0.01 | 1.20 | 0.01 | 97 | 1010.7 |
| 20260904115616 | 60 | 320 | 7.0 | 10.0 | 0.01 | 1.21 | 0.01 | 97 | 1010.6 |
| 20260904115515 | 60 | 312 | 8.0 | 11.0 | 0.01 | 1.22 | 0.01 | 97 | 1010.7 |
| 20260904113516 | 60 | 316 | 7.0 | 11.0 | 0.01 | 1.23 | 0.01 | 96 | 1010.4 |
| 20260904112516 | 60 | 318 | 4.0 | 6.0 | 0.01 | 1.24 | 0.01 | 97 | 1010.2 |
| 20260904111514 | 60 | 320 | 8.0 | 10.0 | 0.01 | 1.24 | 0.00 | 96 | 1010.4 |
| 20260904111415 | 60 | 319 | 7.0 | 11.0 | 0.00 | 1.23 | 0.00 | 97 | 1010.4 |
| 20260904110414 | 60 | 321 | 6.0 | 9.0 | 0.00 | 1.23 | 0.00 | 96 | 1010.3 |
| 20260904105414 | 60 | 315 | 6.0 | 7.0 | 0.00 | 1.24 | 0.00 | 98 | 1010.2 |
| 20260904104416 | 60 | 315 | 4.0 | 6.0 | 0.00 | 1.24 | 0.00 | 96 | 1010.1 |
| 20260904103514 | 60 | 313 | 4.0 | 5.0 | 0.00 | 1.25 | 0.00 | 97 | 1010.2 |
| 20260904102613 | 60 | 315 | 4.0 | 7.0 | 0.00 | 1.25 | 0.00 | 97 | 1010.0 |
| 20260904101614 | 60 | 315 | 5.0 | 8.0 | 0.00 | 1.25 | 0.00 | 97 | 1010.0 |
| 20260904100613 | 59 | 315 | 7.0 | 9.0 | 0.00 | 1.25 | 0.00 | 97 | 1010.0 |
| 20260904100514 | 59 | 315 | 5.0 | 7.0 | 0.00 | 1.25 | 0.00 | 97 | 1010.0 |
| 20260904095515 | 59 | 307 | 7.0 | 12.0 | 0.00 | 1.25 | 0.00 | 97 | 1010.0 |
| 20260904094515 | 59 | 285 | 8.0 | 10.0 | 0.00 | 1.25 | 0.00 | 96 | 1010.0 |
| 20260904093614 | 59 | 306 | 7.0 | 9.0 | 0.00 | 1.25 | 0.00 | 96 | 1010.0 |
| 20260904092613 | 59 | 289 | 6.0 | 7.0 | 0.00 | 1.25 | 0.00 | 97 | 1009.9 |
| 20260904092517 | 59 | 305 | 5.0 | 7.0 | 0.00 | 1.25 | 0.00 | 97 | 1009.9 |
| 20260904091615 | 59 | 313 | 6.0 | 9.0 | 0.00 | 1.25 | 0.00 | 97 | 1010.0 |
| 20260904090616 | 60 | 298 | 8.0 | 10.0 | 0.00 | 1.25 | 0.00 | 97 | 1010.0 |
| 20260904090514 | 59 | 302 | 6.0 | 8.0 | 0.00 | 1.25 | 0.00 | 97 | 1010.0 |
| 20260904085518 | 60 | 282 | 8.0 | 9.0 | 0.00 | 1.25 | 0.00 | 97 | 1010.0 |
| 20260904084614 | 60 | 279 | 3.0 | 5.0 | 0.00 | 1.25 | 0.00 | 96 | 1010.0 |
| 20260904084515 | 60 | 308 | 5.0 | 6.0 | 0.00 | 1.25 | 0.00 | 97 | 1010.0 |
| 20260904084413 | 60 | 292 | 5.0 | 8.0 | 0.00 | 1.25 | 0.00 | 97 | 1010.0 |
| 20260904083415 | 60 | 310 | 4.0 | 6.0 | 0.00 | 1.25 | 0.00 | 96 | 1010.0 |
| 20260904082417 | 60 | 278 | 5.0 | 6.0 | 0.00 | 1.25 | 0.00 | 96 | 1010.0 |
| 20260904081415 | 60 | 303 | 5.0 | 7.0 | 0.00 | 1.25 | 0.00 | 97 | 1010.0 |
| 20260904080416 | 60 | 279 | 6.0 | 8.0 | 0.00 | 1.25 | 0.00 | 97 | 1010.1 |
| 20260904075436 | 60 | 292 | 6.0 | 9.0 | 0.00 | 1.25 | 0.00 | 96 | 1009.9 |
| 20260904074437 | 60 | 283 | 5.0 | 7.0 | 0.00 | 1.25 | 0.00 | 97 | 1010.2 |
| 20260904073534 | 60 | 290 | 4.0 | 7.0 | 0.00 | 1.25 | 0.00 | 97 | 1010.4 |
| 20260904073436 | 60 | 288 | 7.0 | 9.0 | 0.00 | 1.25 | 0.00 | 96 | 1010.4 |
| 20260904071436 | 60 | 270 | 4.0 | 5.0 | 0.00 | 1.25 | 0.00 | 97 | 1010.2 |
| 20260904070437 | 60 | 292 | 3.0 | 4.0 | 0.00 | 1.25 | 0.00 | 96 | 1010.1 |
| 20260904065536 | 60 | 294 | 6.0 | 7.0 | 0.00 | 1.25 | 0.00 | 97 | 1010.4 |
| 20260904064536 | 60 | 292 | 3.0 | 4.0 | 0.00 | 1.25 | 0.00 | 97 | 1010.4 |
| 20260904063536 | 60 | 272 | 4.0 | 4.0 | 0.00 | 1.25 | 0.00 | 97 | 1010.7 |
| 20260904063434 | 60 | 273 | 5.0 | 7.0 | 0.00 | 1.25 | 0.00 | 96 | 1010.7 |
| 20260904062436 | 60 | 293 | 5.0 | 6.0 | 0.00 | 1.25 | 0.00 | 97 | 1010.8 |
| 20260904062337 | 60 | 271 | 4.0 | 7.0 | 0.00 | 1.25 | 0.00 | 97 | 1010.8 |
| 20260904061435 | 60 | 270 | 3.0 | 5.0 | 0.00 | 1.25 | 0.00 | 97 | 1010.9 |
| 20260904060438 | 60 | 292 | 5.0 | 7.0 | 0.00 | 1.25 | 0.00 | 97 | 1011.0 |
| 20260904055437 | 60 | 315 | 4.0 | 4.0 | 0.00 | 1.25 | 0.00 | 96 | 1010.7 |
| 20260904054437 | 60 | 292 | 4.0 | 4.0 | 0.00 | 1.25 | 0.00 | 96 | 1011.0 |
| 20260904053534 | 60 | 292 | 5.0 | 6.0 | 0.00 | 1.25 | 0.00 | 97 | 1011.0 |
| 20260904051536 | 60 | 315 | 5.0 | 6.0 | 0.00 | 1.25 | 0.00 | 97 | 1011.2 |
| 20260904050635 | 60 | 315 | 5.0 | 7.0 | 0.00 | 1.25 | 0.00 | 96 | 1011.4 |
| 20260904045636 | 60 | 315 | 4.0 | 6.0 | 0.00 | 1.25 | 0.00 | 97 | 1011.5 |
| 20260904043634 | 60 | 315 | 4.0 | 5.0 | 0.00 | 1.25 | 0.00 | 97 | 1011.8 |
| 20260904042635 | 59 | 315 | 3.0 | 4.0 | 0.00 | 1.25 | 0.00 | 96 | 1012.0 |
| 20260904041635 | 59 | 315 | 4.0 | 6.0 | 0.00 | 1.25 | 0.00 | 97 | 1011.9 |
| 20260904040637 | 59 | 315 | 2.0 | 5.0 | 0.00 | 1.25 | 0.00 | 97 | 1011.8 |
| 20260904035645 | 60 | 319 | 2.0 | 5.0 | 0.00 | 1.25 | 1.25 | 97 | 1011.9 |
| 20260904033647 | 60 | 360 | 3.0 | 4.0 | 0.00 | 1.25 | 1.25 | 95 | 1012.3 |
| 20260904032745 | 60 | 315 | 2.0 | 3.0 | 0.00 | 1.25 | 1.25 | 96 | 1012.5 |
| 20260904030846 | 60 | 90 | 0.0 | 0.0 | 0.01 | 1.25 | 1.25 | 96 | 1012.4 |
| 20260904024846 | 60 | 90 | 0.0 | 1.0 | 0.01 | 1.25 | 1.25 | 96 | 1012.2 |
| 20260904023944 | 60 | 90 | 2.0 | 3.0 | 0.01 | 1.25 | 1.25 | 96 | 1012.3 |
| 20260904022946 | 60 | 90 | 0.0 | 0.0 | 0.02 | 1.25 | 1.25 | 96 | 1012.3 |
| 20260904022046 | 60 | 90 | 0.0 | 1.0 | 0.01 | 1.24 | 1.24 | 96 | 1012.3 |
| 20260904020146 | 60 | 90 | 3.0 | 3.0 | 0.01 | 1.24 | 1.24 | 95 | 1012.7 |
| 20260904015244 | 60 | 102 | 3.0 | 4.0 | 0.01 | 1.24 | 1.24 | 95 | 1012.9 |
| 20260904014247 | 60 | 96 | 4.0 | 5.0 | 0.02 | 1.24 | 1.24 | 96 | 1013.1 |
| 20260904012347 | 60 | 94 | 5.0 | 7.0 | 0.01 | 1.23 | 1.23 | 96 | 1013.1 |
| 20260904011345 | 60 | 90 | 5.0 | 6.0 | 0.01 | 1.23 | 1.23 | 95 | 1013.0 |
| 20260904010345 | 60 | 90 | 4.0 | 6.0 | 0.02 | 1.23 | 1.23 | 96 | 1013.3 |
| 20260904010244 | 60 | 90 | 4.0 | 6.0 | 0.02 | 1.23 | 1.23 | 96 | 1013.2 |
| 20260904005247 | 60 | 90 | 4.0 | 6.0 | 0.02 | 1.23 | 1.23 | 95 | 1013.2 |
| 20260904004249 | 60 | 90 | 4.0 | 5.0 | 0.02 | 1.22 | 1.22 | 96 | 1013.3 |
| 20260904003345 | 60 | 100 | 4.0 | 7.0 | 0.02 | 1.22 | 1.22 | 96 | 1013.4 |
| 20260904002347 | 60 | 101 | 3.0 | 6.0 | 0.03 | 1.22 | 1.22 | 96 | 1013.3 |
| 20260903235347 | 60 | 132 | 2.0 | 3.0 | 0.03 | 1.21 | 1.21 | 96 | 1013.3 |
| 20260903234345 | 60 | 117 | 2.0 | 3.0 | 0.03 | 1.20 | 1.20 | 96 | 1013.4 |
| 20260903233345 | 60 | 90 | 2.0 | 4.0 | 0.03 | 1.20 | 1.20 | 96 | 1013.6 |
| 20260903232346 | 60 | 135 | 1.0 | 3.0 | 0.03 | 1.19 | 1.19 | 96 | 1013.6 |
| 20260903231347 | 60 | 130 | 4.0 | 6.0 | 0.03 | 1.19 | 1.19 | 95 | 1013.6 |
| 20260903231245 | 60 | 99 | 3.0 | 5.0 | 0.03 | 1.19 | 1.19 | 95 | 1013.6 |
| 20260903225345 | 60 | 141 | 3.0 | 7.0 | 0.04 | 1.18 | 1.18 | 95 | 1013.9 |
| 20260903222348 | 62 | 117 | 3.0 | 6.0 | 0.04 | 1.15 | 1.15 | 94 | 1014.0 |
| 20260903222247 | 62 | 135 | 0.0 | 3.0 | 0.04 | 1.15 | 1.15 | 95 | 1014.0 |
| 20260903221246 | 62 | 151 | 3.0 | 9.0 | 0.05 | 1.15 | 1.15 | 95 | 1014.0 |
| 20260903220245 | 61 | 162 | 4.0 | 8.0 | 0.04 | 1.15 | 1.15 | 95 | 1014.0 |
| 20260903220146 | 61 | 151 | 3.0 | 5.0 | 0.04 | 1.15 | 1.15 | 95 | 1013.9 |
| 20260903214147 | 61 | 177 | 4.0 | 8.0 | 0.03 | 1.13 | 1.13 | 95 | 1014.2 |
| 20260903212247 | 61 | 173 | 5.0 | 11.0 | 0.04 | 1.12 | 1.12 | 94 | 1014.2 |
| 20260903211245 | 61 | 189 | 4.0 | 7.0 | 0.04 | 1.11 | 1.11 | 95 | 1014.3 |
| 20260903210248 | 61 | 182 | 1.0 | 5.0 | 0.04 | 1.11 | 1.11 | 94 | 1014.4 |
| 20260903205346 | 62 | 132 | 3.0 | 7.0 | 0.03 | 1.10 | 1.10 | 95 | 1014.5 |
| 20260903204345 | 62 | 138 | 4.0 | 10.0 | 0.04 | 1.10 | 1.10 | 95 | 1014.6 |
| 20260903203345 | 61 | 172 | 6.0 | 11.0 | 0.03 | 1.09 | 1.09 | 95 | 1014.7 |
| 20260903195448 | 62 | 109 | 2.0 | 5.0 | 0.04 | 1.07 | 1.07 | 95 | 1015.0 |
| 20260903194445 | 62 | 124 | 4.0 | 6.0 | 0.04 | 1.06 | 1.06 | 94 | 1015.1 |
| 20260903193448 | 61 | 127 | 2.0 | 4.0 | 0.05 | 1.06 | 1.06 | 95 | 1015.5 |
| 20260903192449 | 61 | 93 | 3.0 | 5.0 | 0.05 | 1.05 | 1.05 | 94 | 1015.5 |
| 20260903191447 | 61 | 112 | 1.0 | 3.0 | 0.04 | 1.04 | 1.04 | 94 | 1015.7 |
| 20260903190446 | 61 | 101 | 3.0 | 6.0 | 0.04 | 1.04 | 1.04 | 94 | 1015.8 |
| 20260903185346 | 61 | 131 | 2.0 | 4.0 | 0.03 | 1.03 | 1.02 | 93 | 1015.8 |
| 20260903184346 | 61 | 130 | 2.0 | 2.0 | 0.02 | 1.02 | 1.02 | 93 | 1015.9 |
| 20260903183445 | 62 | 135 | 3.0 | 6.0 | 0.02 | 1.01 | 1.01 | 93 | 1016.1 |
| 20260903183346 | 62 | 119 | 4.0 | 5.0 | 0.02 | 1.01 | 1.00 | 93 | 1016.0 |
| 20260903180545 | 63 | 176 | 2.0 | 5.0 | 0.01 | 1.00 | 1.00 | 93 | 1016.2 |
| 20260903175546 | 63 | 138 | 3.0 | 5.0 | 0.01 | 1.00 | 1.00 | 93 | 1016.3 |
| 20260903174545 | 63 | 187 | 2.0 | 3.0 | 0.01 | 1.00 | 1.00 | 93 | 1016.4 |
| 20260903173644 | 63 | 184 | 3.0 | 4.0 | 0.00 | 0.99 | 0.99 | 92 | 1016.5 |
| 20260903172646 | 63 | 225 | 1.0 | 3.0 | 0.01 | 0.99 | 0.99 | 94 | 1016.7 |
| 20260903171744 | 63 | 229 | 0.0 | 3.0 | 0.02 | 0.99 | 0.99 | 94 | 1016.9 |
| 20260903171648 | 63 | 225 | 1.0 | 2.0 | 0.02 | 0.99 | 0.99 | 93 | 1016.9 |
| 20260903170744 | 62 | 138 | 0.0 | 3.0 | 0.02 | 0.99 | 0.99 | 95 | 1016.9 |
| 20260903165647 | 62 | 92 | 3.0 | 4.0 | 0.03 | 0.99 | 0.99 | 94 | 1016.9 |
| 20260903164646 | 62 | 93 | 2.0 | 4.0 | 0.04 | 0.99 | 0.99 | 95 | 1017.0 |
| 20260903163743 | 62 | 32 | 1.0 | 3.0 | 0.06 | 0.99 | 0.99 | 95 | 1017.2 |
| 20260903162747 | 62 | 317 | 0.0 | 1.0 | 0.05 | 0.98 | 0.98 | 93 | 1017.3 |
| 20260903161746 | 62 | 276 | 6.0 | 8.0 | 0.08 | 0.97 | 0.97 | 95 | 1017.3 |
| 20260903160744 | 62 | 245 | 4.0 | 5.0 | 0.10 | 0.97 | 0.97 | 95 | 1017.4 |
| 20260903154746 | 61 | 189 | 4.0 | 7.0 | 0.17 | 0.95 | 0.95 | 96 | 1017.6 |
| 20260903153748 | 61 | 192 | 7.0 | 10.0 | 0.18 | 0.93 | 0.93 | 96 | 1017.6 |
| 20260903151745 | 61 | 200 | 5.0 | 14.0 | 0.21 | 0.89 | 0.89 | 94 | 1017.8 |
| 20260903150745 | 61 | 139 | 4.0 | 8.0 | 0.22 | 0.87 | 0.87 | 95 | 1017.9 |
| 20260903145745 | 62 | 216 | 3.0 | 6.0 | 0.28 | 0.83 | 0.82 | 95 | 1017.8 |
| 20260903144844 | 61 | 157 | 8.0 | 12.0 | 0.31 | 0.78 | 0.78 | 96 | 1017.6 |
| 20260903142947 | 61 | 157 | 8.0 | 16.0 | 0.38 | 0.71 | 0.71 | 96 | 1017.7 |
| 20260903141945 | 60 | 159 | 5.0 | 11.0 | 0.42 | 0.69 | 0.69 | 96 | 1017.7 |
| 20260903140946 | 60 | 115 | 6.0 | 11.0 | 0.43 | 0.66 | 0.65 | 96 | 1017.7 |
| 20260903140044 | 60 | 146 | 6.0 | 9.0 | 0.36 | 0.59 | 0.57 | 96 | 1018.0 |
| 20260903135045 | 60 | 95 | 3.0 | 5.0 | 0.27 | 0.48 | 0.47 | 96 | 1018.4 |
| 20260903134047 | 60 | 146 | 1.0 | 3.0 | 0.20 | 0.39 | 0.38 | 96 | 1018.5 |
| 20260903133047 | 60 | 90 | 3.0 | 4.0 | 0.18 | 0.34 | 0.33 | 96 | 1018.5 |
| 20260903132944 | 60 | 122 | 1.0 | 3.0 | 0.17 | 0.33 | 0.33 | 96 | 1018.5 |